Вернуться в каталог

STARLINK-32598

АктивенСвязьVLEO
NORAD 62046·PAYLOAD·🇺🇸 United States

Запущен Nov 21, 2024 с Cape Canaveral Space Force Station

Loading…

Ближайшие Пролёты (ближайшие 24 часа)

TLE

СвежийSource: CelesTrak SupGP

Эпоха: Sep 15, 2026, 02:27 UTC

1 62046C 24216Q   26258.10256944 -.00008289  00000+0 -30027-3 0  2588
2 62046  43.0004 266.1404 0001319 264.6582 302.5402 15.27577578    12

Отслеживайте STARLINK-32598 в реальном времени с AllMySat

Download on the App Store